Wetterdaten: Dienstag, 16.02.2010
Datum Zeit Temp. A. Feuchte A. Luftdruck Regen Wind Richtung Richtung Sonnenschein UV Solar Windben
16.02.2010 00:00 -2,3 C 83 % 1004,9 hPa 0,0 mm 3,2 km/h (1 Bft) O-SO 112 0 min 0 UV-I 0 W/m 9,7 km/h (2 Bft)
16.02.2010 00:10 -2,2 C 83 % 1004,8 hPa 0,0 mm 1,6 km/h (1 Bft) O-SO 112 0 min 0 UV-I 0 W/m 6,4 km/h (2 Bft)
16.02.2010 00:20 -2,2 C 83 % 1004,8 hPa 0,0 mm 1,6 km/h (1 Bft) O-SO 112 0 min 0 UV-I 0 W/m 8,0 km/h (2 Bft)
16.02.2010 00:30 -2,2 C 83 % 1004,8 hPa 0,0 mm 1,6 km/h (1 Bft) O-SO 112 0 min 0 UV-I 0 W/m 6,4 km/h (2 Bft)
16.02.2010 00:40 -2,2 C 83 % 1004,8 hPa 0,0 mm 1,6 km/h (1 Bft) S-SO 157 0 min 0 UV-I 0 W/m 4,8 km/h (1 Bft)
16.02.2010 00:50 -2,2 C 83 % 1004,7 hPa 0,0 mm 0,0 km/h (0 Bft) SO 135 0 min 0 UV-I 0 W/m 6,4 km/h (2 Bft)
16.02.2010 01:00 -2,2 C 83 % 1004,7 hPa 0,0 mm 1,6 km/h (1 Bft) O-SO 112 0 min 0 UV-I 0 W/m 6,4 km/h (2 Bft)
16.02.2010 01:10 -2,3 C 83 % 1004,6 hPa 0,0 mm 0,0 km/h (0 Bft) SO 135 0 min 0 UV-I 0 W/m 3,2 km/h (1 Bft)
16.02.2010 01:20 -2,3 C 83 % 1004,6 hPa 0,0 mm 0,0 km/h (0 Bft) SO 135 0 min 0 UV-I 0 W/m 3,2 km/h (1 Bft)
16.02.2010 01:30 -2,3 C 83 % 1004,5 hPa 0,0 mm 0,0 km/h (0 Bft) S-SO 157 0 min 0 UV-I 0 W/m 3,2 km/h (1 Bft)
16.02.2010 01:40 -2,3 C 83 % 1004,5 hPa 0,0 mm 1,6 km/h (1 Bft) O-SO 112 0 min 0 UV-I 0 W/m 4,8 km/h (1 Bft)
16.02.2010 01:50 -2,3 C 83 % 1004,4 hPa 0,0 mm 1,6 km/h (1 Bft) O-SO 112 0 min 0 UV-I 0 W/m 4,8 km/h (1 Bft)
16.02.2010 02:00 -2,2 C 84 % 1004,4 hPa 0,0 mm 1,6 km/h (1 Bft) SO 135 0 min 0 UV-I 0 W/m 8,0 km/h (2 Bft)
16.02.2010 02:10 -2,2 C 84 % 1004,4 hPa 0,0 mm 1,6 km/h (1 Bft) O-SO 112 0 min 0 UV-I 0 W/m 6,4 km/h (2 Bft)
16.02.2010 02:20 -2,2 C 84 % 1004,4 hPa 0,0 mm 1,6 km/h (1 Bft) O-SO 112 0 min 0 UV-I 0 W/m 8,0 km/h (2 Bft)
16.02.2010 02:30 -2,1 C 83 % 1004,5 hPa 0,0 mm 1,6 km/h (1 Bft) SO 135 0 min 0 UV-I 0 W/m 9,7 km/h (2 Bft)
16.02.2010 02:40 -2,1 C 83 % 1004,4 hPa 0,0 mm 1,6 km/h (1 Bft) S-SO 157 0 min 0 UV-I 0 W/m 6,4 km/h (2 Bft)
16.02.2010 02:50 -2,2 C 83 % 1004,3 hPa 0,0 mm 0,0 km/h (0 Bft) SO 135 0 min 0 UV-I 0 W/m 4,8 km/h (1 Bft)
16.02.2010 03:00 -2,2 C 82 % 1004,3 hPa 0,0 mm 1,6 km/h (1 Bft) O-SO 112 0 min 0 UV-I 0 W/m 4,8 km/h (1 Bft)
16.02.2010 03:10 -2,3 C 82 % 1004,2 hPa 0,0 mm 1,6 km/h (1 Bft) O-SO 112 0 min 0 UV-I 0 W/m 4,8 km/h (1 Bft)
16.02.2010 03:20 -2,5 C 82 % 1004,1 hPa 0,0 mm 0,0 km/h (0 Bft) O-SO 112 0 min 0 UV-I 0 W/m 3,2 km/h (1 Bft)
16.02.2010 03:30 -2,7 C 82 % 1004,0 hPa 0,0 mm 0,0 km/h (0 Bft) O-SO 112 0 min 0 UV-I 0 W/m 1,6 km/h (1 Bft)
16.02.2010 03:40 -2,8 C 82 % 1003,9 hPa 0,0 mm 0,0 km/h (0 Bft) O-SO 112 0 min 0 UV-I 0 W/m 1,6 km/h (1 Bft)
16.02.2010 03:50 -3,1 C 82 % 1003,9 hPa 0,0 mm 0,0 km/h (0 Bft) N 0 0 min 0 UV-I 0 W/m 0,0 km/h (0 Bft)
16.02.2010 04:00 -3,2 C 82 % 1003,9 hPa 0,0 mm 0,0 km/h (0 Bft) N 0 0 min 0 UV-I 0 W/m 0,0 km/h (0 Bft)
16.02.2010 04:10 -3,5 C 81 % 1003,9 hPa 0,0 mm 0,0 km/h (0 Bft) O-SO 112 0 min 0 UV-I 0 W/m 1,6 km/h (1 Bft)
16.02.2010 04:20 -3,7 C 82 % 1003,9 hPa 0,0 mm 0,0 km/h (0 Bft) O-SO 112 0 min 0 UV-I 0 W/m 1,6 km/h (1 Bft)
16.02.2010 04:30 -3,9 C 82 % 1003,8 hPa 0,0 mm 0,0 km/h (0 Bft) O-SO 112 0 min 0 UV-I 0 W/m 3,2 km/h (1 Bft)
16.02.2010 04:40 -4,1 C 82 % 1003,8 hPa 0,0 mm 0,0 km/h (0 Bft) O-SO 112 0 min 0 UV-I 0 W/m 3,2 km/h (1 Bft)
16.02.2010 04:50 -4,3 C 83 % 1003,8 hPa 0,0 mm 0,0 km/h (0 Bft) O-SO 112 0 min 0 UV-I 0 W/m 3,2 km/h (1 Bft)
16.02.2010 05:00 -4,4 C 83 % 1003,7 hPa 0,0 mm 0,0 km/h (0 Bft) O-SO 112 0 min 0 UV-I 0 W/m 1,6 km/h (1 Bft)
16.02.2010 05:10 -4,6 C 83 % 1003,7 hPa 0,0 mm 0,0 km/h (0 Bft) N 0 0 min 0 UV-I 0 W/m 0,0 km/h (0 Bft)
16.02.2010 05:20 -4,7 C 83 % 1003,7 hPa 0,0 mm 0,0 km/h (0 Bft) N 0 0 min 0 UV-I 0 W/m 0,0 km/h (0 Bft)
16.02.2010 05:30 -4,9 C 83 % 1003,6 hPa 0,0 mm 0,0 km/h (0 Bft) N 0 0 min 0 UV-I 0 W/m 0,0 km/h (0 Bft)
16.02.2010 05:40 -5,1 C 83 % 1003,6 hPa 0,0 mm 0,0 km/h (0 Bft) O-SO 112 0 min 0 UV-I 0 W/m 1,6 km/h (1 Bft)
16.02.2010 05:50 -5,3 C 83 % 1003,6 hPa 0,0 mm 0,0 km/h (0 Bft) O-SO 112 0 min 0 UV-I 0 W/m 1,6 km/h (1 Bft)
16.02.2010 06:00 -5,4 C 83 % 1003,5 hPa 0,0 mm 0,0 km/h (0 Bft) N 0 0 min 0 UV-I 0 W/m 0,0 km/h (0 Bft)
16.02.2010 06:10 -5,6 C 83 % 1003,5 hPa 0,0 mm 0,0 km/h (0 Bft) N 0 0 min 0 UV-I 0 W/m 0,0 km/h (0 Bft)
16.02.2010 06:20 -5,7 C 84 % 1003,5 hPa 0,0 mm 0,0 km/h (0 Bft) N 0 0 min 0 UV-I 0 W/m 0,0 km/h (0 Bft)
16.02.2010 06:30 -5,9 C 83 % 1003,5 hPa 0,0 mm 0,0 km/h (0 Bft) N 0 0 min 0 UV-I 0 W/m 0,0 km/h (0 Bft)
16.02.2010 06:40 -6,1 C 84 % 1003,4 hPa 0,0 mm 0,0 km/h (0 Bft) N 0 0 min 0 UV-I 0 W/m 0,0 km/h (0 Bft)
16.02.2010 06:50 -6,2 C 84 % 1003,4 hPa 0,0 mm 0,0 km/h (0 Bft) O-SO 112 0 min 0 UV-I 0 W/m 1,6 km/h (1 Bft)
16.02.2010 07:00 -6,4 C 84 % 1003,4 hPa 0,0 mm 0,0 km/h (0 Bft) N 0 0 min 0 UV-I 0 W/m 0,0 km/h (0 Bft)
16.02.2010 07:10 -6,5 C 84 % 1003,3 hPa 0,0 mm 0,0 km/h (0 Bft) O-SO 112 0 min 0 UV-I 0 W/m 3,2 km/h (1 Bft)
16.02.2010 07:20 -6,6 C 84 % 1003,4 hPa 0,0 mm 0,0 km/h (0 Bft) N 0 0 min 0 UV-I 0 W/m 0,0 km/h (0 Bft)
16.02.2010 07:30 -6,7 C 85 % 1003,3 hPa 0,0 mm 0,0 km/h (0 Bft) N 0 0 min 0 UV-I 0 W/m 0,0 km/h (0 Bft)
16.02.2010 07:40 -6,8 C 85 % 1003,4 hPa 0,0 mm 0,0 km/h (0 Bft) O-SO 112 0 min 0 UV-I 0 W/m 1,6 km/h (1 Bft)
16.02.2010 07:50 -6,8 C 85 % 1003,5 hPa 0,0 mm 0,0 km/h (0 Bft) O-SO 112 10 min 0 UV-I 9 W/m 1,6 km/h (1 Bft)
16.02.2010 08:00 -6,8 C 86 % 1003,5 hPa 0,0 mm 0,0 km/h (0 Bft) O-SO 106 0 min 0 UV-I 17 W/m 0,0 km/h (0 Bft)
16.02.2010 08:10 -6,8 C 86 % 1003,4 hPa 0,0 mm 0,0 km/h (0 Bft) N 0 0 min 0 UV-I 26 W/m 0,0 km/h (0 Bft)
16.02.2010 08:20 -6,8 C 86 % 1003,4 hPa 0,0 mm 0,0 km/h (0 Bft) N 0 0 min 0 UV-I 32 W/m 0,0 km/h (0 Bft)
16.02.2010 08:30 -6,8 C 86 % 1003,4 hPa 0,0 mm 0,0 km/h (0 Bft) O-SO 112 0 min 0 UV-I 39 W/m 1,6 km/h (1 Bft)
16.02.2010 08:40 -6,8 C 87 % 1003,4 hPa 0,0 mm 0,0 km/h (0 Bft) O-SO 112 0 min 0 UV-I 44 W/m 3,2 km/h (1 Bft)
16.02.2010 08:50 -6,7 C 88 % 1003,3 hPa 0,0 mm 1,6 km/h (1 Bft) O-SO 112 0 min 0 UV-I 54 W/m 4,8 km/h (1 Bft)
16.02.2010 09:00 -6,3 C 88 % 1003,2 hPa 0,0 mm 1,6 km/h (1 Bft) O-SO 112 10 min 0 UV-I 113 W/m 4,8 km/h (1 Bft)
16.02.2010 09:10 -5,4 C 90 % 1003,3 hPa 0,0 mm 0,0 km/h (0 Bft) O-SO 112 10 min 0 UV-I 148 W/m 3,2 km/h (1 Bft)
16.02.2010 09:20 -4,1 C 89 % 1003,2 hPa 0,0 mm 1,6 km/h (1 Bft) O-SO 112 10 min 1 UV-I 192 W/m 6,4 km/h (2 Bft)
16.02.2010 09:30 -3,2 C 87 % 1003,2 hPa 0,0 mm 1,6 km/h (1 Bft) O-SO 112 10 min 1 UV-I 186 W/m 6,4 km/h (2 Bft)
16.02.2010 09:40 -2,6 C 85 % 1003,1 hPa 0,0 mm 1,6 km/h (1 Bft) O-SO 112 10 min 1 UV-I 255 W/m 9,7 km/h (2 Bft)
16.02.2010 09:50 -2,0 C 82 % 1003,1 hPa 0,0 mm 1,6 km/h (1 Bft) O-SO 112 10 min 1 UV-I 264 W/m 8,0 km/h (2 Bft)
16.02.2010 10:00 -1,7 C 81 % 1003,1 hPa 0,0 mm 3,2 km/h (1 Bft) O-SO 112 10 min 1 UV-I 348 W/m 8,0 km/h (2 Bft)
16.02.2010 10:10 -1,1 C 78 % 1003,1 hPa 0,0 mm 3,2 km/h (1 Bft) SO 135 10 min 1 UV-I 352 W/m 9,7 km/h (2 Bft)
16.02.2010 10:20 -0,7 C 77 % 1003,0 hPa 0,0 mm 3,2 km/h (1 Bft) SO 135 10 min 1 UV-I 334 W/m 11,3 km/h (2 Bft)
16.02.2010 10:30 -0,6 C 77 % 1003,0 hPa 0,0 mm 3,2 km/h (1 Bft) S 180 10 min 1 UV-I 353 W/m 16,1 km/h (3 Bft)
16.02.2010 10:40 -0,3 C 76 % 1003,1 hPa 0,0 mm 3,2 km/h (1 Bft) S-SO 157 10 min 1 UV-I 364 W/m 9,7 km/h (2 Bft)
16.02.2010 10:50 0,0 C 74 % 1003,0 hPa 0,0 mm 3,2 km/h (1 Bft) S 180 10 min 1 UV-I 383 W/m 9,7 km/h (2 Bft)
16.02.2010 11:00 0,3 C 73 % 1003,0 hPa 0,0 mm 3,2 km/h (1 Bft) SO 135 10 min 2 UV-I 383 W/m 8,0 km/h (2 Bft)
16.02.2010 11:10 0,4 C 71 % 1003,0 hPa 0,0 mm 4,8 km/h (1 Bft) S 180 10 min 2 UV-I 422 W/m 16,1 km/h (3 Bft)
16.02.2010 11:20 0,5 C 72 % 1003,0 hPa 0,0 mm 3,2 km/h (1 Bft) S 180 10 min 2 UV-I 432 W/m 9,7 km/h (2 Bft)
16.02.2010 11:30 0,9 C 70 % 1003,1 hPa 0,0 mm 3,2 km/h (1 Bft) S-SO 157 10 min 2 UV-I 443 W/m 8,0 km/h (2 Bft)
16.02.2010 11:40 1,1 C 69 % 1003,1 hPa 0,0 mm 3,2 km/h (1 Bft) S 180 10 min 2 UV-I 462 W/m 9,7 km/h (2 Bft)
16.02.2010 11:50 1,2 C 68 % 1003,0 hPa 0,0 mm 3,2 km/h (1 Bft) SO 135 10 min 2 UV-I 462 W/m 9,7 km/h (2 Bft)
16.02.2010 12:00 1,3 C 66 % 1003,0 hPa 0,0 mm 3,2 km/h (1 Bft) S 180 10 min 2 UV-I 475 W/m 14,5 km/h (3 Bft)
16.02.2010 12:10 1,3 C 66 % 1002,9 hPa 0,0 mm 4,8 km/h (1 Bft) S 180 10 min 2 UV-I 478 W/m 17,7 km/h (3 Bft)
16.02.2010 12:20 1,4 C 65 % 1002,8 hPa 0,0 mm 4,8 km/h (1 Bft) S-SO 157 10 min 2 UV-I 489 W/m 17,7 km/h (3 Bft)
16.02.2010 12:30 1,6 C 65 % 1002,7 hPa 0,0 mm 4,8 km/h (1 Bft) SO 135 10 min 2 UV-I 483 W/m 14,5 km/h (3 Bft)
16.02.2010 12:40 1,7 C 64 % 1002,6 hPa 0,0 mm 4,8 km/h (1 Bft) S-SO 157 10 min 2 UV-I 490 W/m 17,7 km/h (3 Bft)
16.02.2010 12:50 1,8 C 64 % 1002,6 hPa 0,0 mm 3,2 km/h (1 Bft) S-SO 157 10 min 2 UV-I 492 W/m 14,5 km/h (3 Bft)
16.02.2010 13:00 1,8 C 64 % 1002,7 hPa 0,0 mm 3,2 km/h (1 Bft) S-SO 157 10 min 2 UV-I 492 W/m 11,3 km/h (2 Bft)
16.02.2010 13:10 1,7 C 64 % 1002,6 hPa 0,0 mm 4,8 km/h (1 Bft) S-SO 157 10 min 2 UV-I 489 W/m 17,7 km/h (3 Bft)
16.02.2010 13:20 1,8 C 65 % 1002,5 hPa 0,0 mm 4,8 km/h (1 Bft) O-SO 112 10 min 2 UV-I 482 W/m 19,3 km/h (3 Bft)
16.02.2010 13:30 1,8 C 65 % 1002,5 hPa 0,0 mm 4,8 km/h (1 Bft) SO 135 10 min 2 UV-I 478 W/m 17,7 km/h (3 Bft)
16.02.2010 13:40 1,7 C 66 % 1002,5 hPa 0,0 mm 3,2 km/h (1 Bft) O-SO 112 10 min 2 UV-I 473 W/m 14,5 km/h (3 Bft)
16.02.2010 13:50 1,8 C 66 % 1002,5 hPa 0,0 mm 4,8 km/h (1 Bft) SO 135 10 min 2 UV-I 454 W/m 17,7 km/h (3 Bft)
16.02.2010 14:00 1,7 C 66 % 1002,4 hPa 0,0 mm 6,4 km/h (2 Bft) O-SO 112 10 min 2 UV-I 446 W/m 16,1 km/h (3 Bft)
16.02.2010 14:10 1,7 C 65 % 1002,3 hPa 0,0 mm 3,2 km/h (1 Bft) O-SO 112 10 min 2 UV-I 441 W/m 11,3 km/h (2 Bft)
16.02.2010 14:20 1,8 C 64 % 1002,2 hPa 0,0 mm 4,8 km/h (1 Bft) SO 135 10 min 2 UV-I 432 W/m 14,5 km/h (3 Bft)
16.02.2010 14:30 1,8 C 64 % 1002,1 hPa 0,0 mm 3,2 km/h (1 Bft) S-SO 157 10 min 2 UV-I 418 W/m 11,3 km/h (2 Bft)
16.02.2010 14:40 1,8 C 64 % 1002,1 hPa 0,0 mm 4,8 km/h (1 Bft) SO 135 10 min 1 UV-I 408 W/m 19,3 km/h (3 Bft)
16.02.2010 14:50 1,7 C 64 % 1002,0 hPa 0,0 mm 3,2 km/h (1 Bft) S 180 10 min 1 UV-I 388 W/m 17,7 km/h (3 Bft)
16.02.2010 15:00 1,6 C 65 % 1001,9 hPa 0,0 mm 3,2 km/h (1 Bft) S-SO 157 10 min 1 UV-I 341 W/m 8,0 km/h (2 Bft)
16.02.2010 15:10 1,6 C 65 % 1001,9 hPa 0,0 mm 3,2 km/h (1 Bft) SO 135 10 min 1 UV-I 295 W/m 16,1 km/h (3 Bft)
16.02.2010 15:20 1,3 C 64 % 1001,9 hPa 0,0 mm 4,8 km/h (1 Bft) O-SO 112 10 min 1 UV-I 304 W/m 12,9 km/h (3 Bft)
16.02.2010 15:30 1,3 C 65 % 1001,8 hPa 0,0 mm 3,2 km/h (1 Bft) S-SO 157 10 min 1 UV-I 290 W/m 8,0 km/h (2 Bft)
16.02.2010 15:40 1,3 C 65 % 1001,8 hPa 0,0 mm 3,2 km/h (1 Bft) S-SO 157 10 min 1 UV-I 202 W/m 14,5 km/h (3 Bft)
16.02.2010 15:50 1,2 C 65 % 1001,6 hPa 0,0 mm 4,8 km/h (1 Bft) SO 135 10 min 1 UV-I 237 W/m 17,7 km/h (3 Bft)
16.02.2010 16:00 1,0 C 66 % 1001,2 hPa 0,0 mm 3,3 km/h (1 Bft) S 181 10 min 1 UV-I 213 W/m 14,5 km/h (3 Bft)
16.02.2010 16:10 1,0 C 66 % 956,2 hPa 0,0 mm 3,2 km/h (1 Bft) SO 135 10 min 1 UV-I 207 W/m 14,5 km/h (3 Bft)
16.02.2010 16:20 0,9 C 66 % 956,2 hPa 0,0 mm 4,8 km/h (1 Bft) SO 135 10 min 1 UV-I 192 W/m 16,1 km/h (3 Bft)
16.02.2010 16:30 0,6 C 67 % 1001,6 hPa 0,0 mm 3,2 km/h (1 Bft) SO 135 10 min 0 UV-I 160 W/m 11,3 km/h (2 Bft)
16.02.2010 16:40 0,4 C 67 % 1001,6 hPa 0,0 mm 3,2 km/h (1 Bft) O-SO 112 10 min 0 UV-I 121 W/m 17,7 km/h (3 Bft)
16.02.2010 16:50 0,1 C 68 % 1001,5 hPa 0,0 mm 3,2 km/h (1 Bft) S-SO 157 10 min 0 UV-I 74 W/m 16,1 km/h (3 Bft)
16.02.2010 17:00 -0,1 C 68 % 1001,6 hPa 0,0 mm 3,2 km/h (1 Bft) S-SO 157 10 min 0 UV-I 58 W/m 11,3 km/h (2 Bft)
16.02.2010 17:10 -0,2 C 69 % 1001,6 hPa 0,0 mm 3,2 km/h (1 Bft) S 180 10 min 0 UV-I 37 W/m 9,7 km/h (2 Bft)
16.02.2010 17:20 -0,5 C 70 % 1001,5 hPa 0,0 mm 1,6 km/h (1 Bft) SO 135 10 min 0 UV-I 25 W/m 8,0 km/h (2 Bft)
16.02.2010 17:30 -0,7 C 70 % 1001,5 hPa 0,0 mm 1,6 km/h (1 Bft) S 180 0 min 0 UV-I 18 W/m 9,7 km/h (2 Bft)
16.02.2010 17:40 -0,9 C 69 % 1001,5 hPa 0,0 mm 3,2 km/h (1 Bft) S-SO 157 0 min 0 UV-I 11 W/m 9,7 km/h (2 Bft)
16.02.2010 17:50 -1,1 C 70 % 1001,6 hPa 0,0 mm 0,0 km/h (0 Bft) SO 135 0 min 0 UV-I 5 W/m 3,2 km/h (1 Bft)
16.02.2010 18:00 -1,4 C 71 % 1001,6 hPa 0,0 mm 0,0 km/h (0 Bft) SO 135 0 min 0 UV-I 0 W/m 4,8 km/h (1 Bft)
16.02.2010 18:10 -1,6 C 72 % 1001,5 hPa 0,0 mm 0,0 km/h (0 Bft) S-SO 157 0 min 0 UV-I 0 W/m 4,8 km/h (1 Bft)
16.02.2010 18:20 -1,8 C 73 % 1001,5 hPa 0,0 mm 1,6 km/h (1 Bft) S-SO 157 0 min 0 UV-I 0 W/m 4,8 km/h (1 Bft)
16.02.2010 18:30 -1,9 C 74 % 1001,4 hPa 0,0 mm 1,6 km/h (1 Bft) SO 135 0 min 0 UV-I 0 W/m 4,8 km/h (1 Bft)
16.02.2010 18:40 -2,1 C 76 % 1001,4 hPa 0,0 mm 1,6 km/h (1 Bft) O-SO 112 0 min 0 UV-I 0 W/m 4,8 km/h (1 Bft)
16.02.2010 18:50 -2,1 C 77 % 1001,3 hPa 0,0 mm 1,6 km/h (1 Bft) O 90 0 min 0 UV-I 0 W/m 4,8 km/h (1 Bft)
16.02.2010 19:00 -2,2 C 77 % 1001,3 hPa 0,0 mm 1,6 km/h (1 Bft) O 90 0 min 0 UV-I 0 W/m 4,8 km/h (1 Bft)
16.02.2010 19:10 -2,4 C 78 % 1001,2 hPa 0,0 mm 0,0 km/h (0 Bft) O 90 0 min 0 UV-I 0 W/m 4,8 km/h (1 Bft)
16.02.2010 19:20 -2,6 C 79 % 1001,2 hPa 0,0 mm 1,6 km/h (1 Bft) O-SO 112 0 min 0 UV-I 0 W/m 4,8 km/h (1 Bft)
16.02.2010 19:30 -2,7 C 79 % 1001,2 hPa 0,0 mm 1,6 km/h (1 Bft) O-SO 112 0 min 0 UV-I 0 W/m 6,4 km/h (2 Bft)
16.02.2010 19:40 -2,8 C 80 % 1001,0 hPa 0,0 mm 1,6 km/h (1 Bft) O-SO 112 0 min 0 UV-I 0 W/m 4,8 km/h (1 Bft)
16.02.2010 19:50 -2,9 C 79 % 1000,9 hPa 0,0 mm 1,6 km/h (1 Bft) O-SO 112 0 min 0 UV-I 0 W/m 6,4 km/h (2 Bft)
16.02.2010 20:00 -2,9 C 79 % 1000,9 hPa 0,0 mm 1,6 km/h (1 Bft) O-SO 112 0 min 0 UV-I 0 W/m 4,8 km/h (1 Bft)
16.02.2010 20:10 -3,1 C 79 % 1000,8 hPa 0,0 mm 1,6 km/h (1 Bft) O-SO 112 0 min 0 UV-I 0 W/m 6,4 km/h (2 Bft)
16.02.2010 20:20 -3,2 C 79 % 1000,8 hPa 0,0 mm 1,6 km/h (1 Bft) O 90 0 min 0 UV-I 0 W/m 4,8 km/h (1 Bft)
16.02.2010 20:30 -3,3 C 80 % 1000,8 hPa 0,0 mm 1,6 km/h (1 Bft) O 90 0 min 0 UV-I 0 W/m 4,8 km/h (1 Bft)
16.02.2010 20:40 -3,4 C 79 % 1000,8 hPa 0,0 mm 1,6 km/h (1 Bft) O 90 0 min 0 UV-I 0 W/m 4,8 km/h (1 Bft)
16.02.2010 20:50 -3,5 C 80 % 1000,7 hPa 0,0 mm 0,0 km/h (0 Bft) O-SO 112 0 min 0 UV-I 0 W/m 3,2 km/h (1 Bft)
16.02.2010 21:00 -3,6 C 79 % 1000,7 hPa 0,0 mm 1,6 km/h (1 Bft) O 90 0 min 0 UV-I 0 W/m 4,8 km/h (1 Bft)
16.02.2010 21:10 -3,7 C 80 % 1000,6 hPa 0,0 mm 1,6 km/h (1 Bft) O-SO 112 0 min 0 UV-I 0 W/m 9,7 km/h (2 Bft)
16.02.2010 21:20 -3,6 C 79 % 1000,6 hPa 0,0 mm 4,8 km/h (1 Bft) O-SO 112 0 min 0 UV-I 0 W/m 11,3 km/h (2 Bft)
16.02.2010 21:30 -3,3 C 79 % 1000,5 hPa 0,0 mm 4,8 km/h (1 Bft) O-SO 112 0 min 0 UV-I 0 W/m 11,3 km/h (2 Bft)
16.02.2010 21:40 -3,2 C 78 % 1000,5 hPa 0,0 mm 4,8 km/h (1 Bft) O-SO 112 0 min 0 UV-I 0 W/m 14,5 km/h (3 Bft)
16.02.2010 21:50 -3,1 C 77 % 1000,4 hPa 0,0 mm 4,8 km/h (1 Bft) O-SO 112 0 min 0 UV-I 0 W/m 14,5 km/h (3 Bft)
16.02.2010 22:00 -3,1 C 77 % 1000,4 hPa 0,0 mm 4,8 km/h (1 Bft) O 90 0 min 0 UV-I 0 W/m 14,5 km/h (3 Bft)
16.02.2010 22:10 -3,2 C 77 % 1000,2 hPa 0,0 mm 4,8 km/h (1 Bft) O-SO 112 0 min 0 UV-I 0 W/m 17,7 km/h (3 Bft)
16.02.2010 22:20 -3,1 C 76 % 1000,2 hPa 0,0 mm 6,4 km/h (2 Bft) O-SO 112 0 min 0 UV-I 0 W/m 17,7 km/h (3 Bft)
16.02.2010 22:30 -3,2 C 76 % 1000,1 hPa 0,0 mm 6,4 km/h (2 Bft) O-SO 112 0 min 0 UV-I 0 W/m 16,1 km/h (3 Bft)
16.02.2010 22:40 -3,2 C 76 % 1000,0 hPa 0,0 mm 4,8 km/h (1 Bft) O-SO 112 0 min 0 UV-I 0 W/m 12,9 km/h (3 Bft)
16.02.2010 22:50 -3,3 C 76 % 999,9 hPa 0,0 mm 6,4 km/h (2 Bft) O-SO 112 0 min 0 UV-I 0 W/m 11,3 km/h (2 Bft)
16.02.2010 23:00 -3,4 C 76 % 999,8 hPa 0,0 mm 6,4 km/h (2 Bft) O-SO 112 0 min 0 UV-I 0 W/m 14,5 km/h (3 Bft)
16.02.2010 23:10 -3,5 C 77 % 999,8 hPa 0,0 mm 6,4 km/h (2 Bft) O-SO 112 0 min 0 UV-I 0 W/m 14,5 km/h (3 Bft)
16.02.2010 23:20 -3,6 C 76 % 999,7 hPa 0,0 mm 6,4 km/h (2 Bft) O-SO 112 0 min 0 UV-I 0 W/m 12,9 km/h (3 Bft)
16.02.2010 23:30 -3,6 C 76 % 999,7 hPa 0,0 mm 4,8 km/h (1 Bft) O-SO 112 0 min 0 UV-I 0 W/m 12,9 km/h (3 Bft)
16.02.2010 23:40 -3,7 C 77 % 999,8 hPa 0,0 mm 4,8 km/h (1 Bft) O-SO 112 0 min 0 UV-I 0 W/m 14,5 km/h (3 Bft)
16.02.2010 23:50 -3,8 C 76 % 999,7 hPa 0,0 mm 4,8 km/h (1 Bft) O-SO 112 0 min 0 UV-I 0 W/m 9,7 km/h (2 Bft)
_ Min-Zeit 07:30 12:40 16:10 - 00:50 - - - - - 03:50
Minimum _ -6,8 C 64 % 956,2 hPa - 0,0 km/h (0 Bft) - - - - - 0,0 km/h (0 Bft)
_ Max-Zeit 12:50 09:10 00:00 00:00 14:00 - - 07:50 12:20 12:50 13:20
Maximum _ 1,9 C 90 % 1004,9 hPa 0,0 mm 6,4 km/h
O-SO (2 Bft)
- - 10 min 2 UV-I 492 W/m 19,3 km/h
S-SW (3 Bft)
Durchschnitt _ -2,2 C 77 % 1001,9 hPa #0,0 mm 2,2 km/h (1 Bft) O-SO - #8:40 h 1 UV-I 282 W/m 8,0 km/h (2 Bft)